Weather History for KCOS - October, 2013

Change the Weather History Date:

Friday, October 4, 2013

  Actual Average Record
Temperature  
Mean Temperature 40 °F 54 °F  
Max Temperature 51 °F 67 °F 83 °F (1963)
Min Temperature 28 °F 40 °F 20 °F (1959)
Degree Days  
Heating Degree Days 25 12  
Month to date heating degree days 35 44  
Since 1 July heating degree days 118 234  
Cooling Degree Days 0 0  
Month to date cooling degree days 0 0  
Year to date cooling degree days 694 454  
Moisture  
Dew Point 32 °F    
Average Humidity 66    
Maximum Humidity 86    
Minimum Humidity 45    
Precipitation  
Precipitation 0.03 in 0.02 in 1.25 in (1895)
Month to date precipitation 0.03 0.11  
Year to date precipitation 18.49 15.09  
Snow  
Snow 0.00 in 0.10 in 2.30 in (1969)
Month to date snowfall 0.0 0.2  
Since 1 July snowfall T 0.4  
Since 1 September snowfall T 0.4  
Snow Depth 0.00 in    
Sea Level Pressure  
Sea Level Pressure 29.90 in    
Wind  
Wind Speed 18 mph (North)    
Max Wind Speed 43 mph    
Max Gust Speed 52 mph    
Visibility 10 miles    
Events Rain    
T = Trace of Precipitation, MM = Missing Value Source: NWS Daily Summary

Daily Weather History Graph

Daily Weather History Graph

Search for Another Location

Airport or City:

Trip Planner

Search our weather history database for the weather conditions in past years. The results will help you decide how hot, cold, wet, or windy it might be!

Date:

Astronomy

Oct. 04, 2013 Rise Set
Actual Time 6:57 AM MDT 6:36 PM MDT
Civil Twilight 6:31 AM MDT 7:02 PM MDT
Nautical Twilight 6:00 AM MDT 7:33 PM MDT
Astronomical Twilight 5:29 AM MDT 8:04 PM MDT
Moon 6:35 AM MDT (10/4) 6:20 PM MDT (10/4)
Length of Visible Light 12h 31m
Length of Day
11h 38m
Waning Crescent, 0% of the Moon is Illuminated
Oct 4
Waning Crescent
Oct 4
New
Oct 11
First Quarter
Oct 18
Full
Oct 26
Last Quarter

Hourly Weather History & Observations

Time (MDT) Temp. Windchill Dew Point Humidity Pressure Visibility Wind Dir Wind Speed Gust Speed Precip Events Conditions
12:06 AM 50.0 °F - 46.4 °F 87% 29.78 in 10.0 mi North 4.6 mph - N/A   Mostly Cloudy
12:54 AM 51.1 °F - 46.9 °F 86% 29.58 in 10.0 mi NE 11.5 mph - N/A   Overcast
1:31 AM 50.0 °F - 46.4 °F 87% 29.78 in 10.0 mi ENE 9.2 mph - N/A   Overcast
1:54 AM 50.0 °F - 46.0 °F 86% 29.57 in 10.0 mi ENE 10.4 mph - N/A   Overcast
2:54 AM 50.0 °F - 45.0 °F 83% 29.57 in 10.0 mi NNE 10.4 mph - N/A   Overcast
3:54 AM 50.0 °F - 44.1 °F 80% 29.57 in 10.0 mi NNE 5.8 mph - N/A   Overcast
4:54 AM 50.0 °F - 44.1 °F 80% 29.60 in 10.0 mi WNW 4.6 mph - N/A   Overcast
5:43 AM 42.8 °F 33.1 °F 37.4 °F 81% 29.84 in 10.0 mi North 25.3 mph 36.8 mph 0.00 in Rain Light Rain
5:54 AM 42.1 °F 32.6 °F 37.0 °F 82% 29.70 in 10.0 mi North 23.0 mph 31.1 mph 0.00 in Rain Light Rain
6:45 AM 39.2 °F 29.0 °F 33.8 °F 81% 29.87 in 10.0 mi North 21.9 mph 31.1 mph 0.03 in   Mostly Cloudy
6:54 AM 39.9 °F 30.8 °F 34.0 °F 79% 29.75 in 10.0 mi North 18.4 mph 31.1 mph 0.03 in   Mostly Cloudy
7:54 AM 39.0 °F 29.3 °F 32.0 °F 76% 29.80 in 10.0 mi North 19.6 mph 25.3 mph N/A   Scattered Clouds
8:54 AM 39.9 °F 29.0 °F 28.9 °F 65% 29.87 in 10.0 mi NNE 26.5 mph 34.5 mph N/A   Scattered Clouds
9:54 AM 44.1 °F 35.7 °F 28.9 °F 55% 29.90 in 10.0 mi NNE 20.7 mph 27.6 mph N/A   Scattered Clouds
10:54 AM 42.1 °F 33.9 °F 28.0 °F 58% 29.97 in 10.0 mi NNE 17.3 mph 27.6 mph N/A   Scattered Clouds
11:54 AM 44.1 °F 34.8 °F 28.0 °F 53% 29.97 in 10.0 mi North 25.3 mph 31.1 mph N/A   Scattered Clouds
12:54 PM 45.0 °F 37.1 °F 28.0 °F 52% 29.95 in 10.0 mi NNW 19.6 mph 29.9 mph N/A   Scattered Clouds
1:54 PM 46.0 °F 37.2 °F 28.0 °F 50% 29.94 in 10.0 mi North 26.5 mph 33.4 mph N/A   Scattered Clouds
2:54 PM 46.9 °F - 28.0 °F 48% 29.94 in 10.0 mi North 21.9 mph 26.5 mph N/A   Scattered Clouds
3:54 PM 46.9 °F - 27.0 °F 46% 29.94 in 10.0 mi NNW 20.7 mph 32.2 mph N/A   Scattered Clouds
4:54 PM 41.0 °F 28.5 °F 28.0 °F 60% 29.96 in 10.0 mi NNW 39.1 mph 48.3 mph N/A   Mostly Cloudy
5:54 PM 37.9 °F 24.9 °F 27.0 °F 65% 30.08 in 10.0 mi North 34.5 mph 47.2 mph N/A   Overcast
6:54 PM 37.0 °F 25.4 °F 25.0 °F 62% 30.16 in 10.0 mi North 25.3 mph 35.7 mph N/A   Overcast
7:54 PM 36.0 °F 23.9 °F 21.9 °F 57% 30.19 in 10.0 mi North 25.3 mph 34.5 mph N/A   Scattered Clouds
8:54 PM 34.0 °F 24.2 °F 19.9 °F 56% 30.23 in 10.0 mi North 15.0 mph - N/A   Scattered Clouds
9:54 PM 30.9 °F 21.2 °F 19.9 °F 64% 30.22 in 10.0 mi North 12.7 mph - N/A   Partly Cloudy
10:54 PM 30.9 °F 22.2 °F 19.9 °F 64% 30.23 in 10.0 mi NNE 10.4 mph - N/A   Clear
11:54 PM 30.0 °F 23.2 °F 21.0 °F 69% 30.22 in 10.0 mi NNE 6.9 mph - N/A   Clear